Theta_e
311 312 312 313 314 314 314 315 319 324 320 319 321 320 322 328 328 326 325 324 339 343 342 343 346 345 347 348 347 347 347 349 349 349 349 349 349 349 349 349 348 348 348 348
312 312 313 314 314 315 315 316 317 320 320 321 334 340 346 346 346 346 335 324 329 342 343 344 345 345 346 348 348 347 347 348 349 349 349 349 349 349 350 351 351 351 350 350
312 310 312 318 317 321 321 319 323 322 324 327 344 345 341 340 342 346 347 332 326 340 343 344 345 345 346 348 349 349 348 348 348 350 351 351 350 349 349 349 350 351 351 351
310 312 323 322 321 321 319 319 319 320 324 343 346 341 337 333 334 342 348 344 339 342 344 344 345 345 345 347 349 350 349 349 349 350 351 352 352 352 351 350 350 351 352 351
314 315 317 324 320 320 322 319 318 318 318 325 332 338 340 331 331 338 344 349 337 342 343 344 344 345 345 348 349 351 350 350 351 351 351 352 353 353 353 353 352 351 351 352
317 319 333 323 317 316 320 321 316 315 316 318 337 347 337 324 329 337 341 349 345 343 343 344 344 344 346 348 350 352 352 352 353 353 353 353 352 353 354 355 354 353 353 352
312 318 321 316 313 318 328 321 315 313 313 318 324 325 322 319 321 328 337 344 350 343 343 345 345 344 346 347 349 350 352 353 353 354 354 354 354 354 354 355 356 356 356 355
314 321 329 312 317 320 315 312 312 312 312 313 316 319 320 320 321 324 332 339 343 351 350 342 345 345 346 347 347 348 350 351 353 354 355 355 356 356 356 356 356 357 357 357
315 316 312 311 313 311 312 312 312 312 313 313 313 317 318 322 324 326 329 335 338 344 347 348 350 348 351 354 350 348 348 349 351 353 354 355 356 356 357 357 357 357 357 357
311 311 312 313 313 312 313 313 313 313 313 313 313 314 317 319 321 326 330 332 335 338 341 344 345 349 351 355 354 354 352 350 349 350 352 355 356 357 357 357 357 358 357 358
310 312 313 314 313 312 314 313 313 314 313 313 313 312 316 318 320 320 324 330 332 335 338 341 344 348 350 349 351 355 355 356 356 353 352 352 354 356 357 357 357 357 358 358
313 312 313 313 313 314 314 313 313 314 314 314 313 313 314 316 318 317 319 325 331 335 337 341 344 345 349 349 348 348 349 351 352 357 356 355 353 350 355 356 357 358 358 358
311 310 311 311 311 311 312 313 313 313 313 314 314 313 313 315 316 317 317 321 329 334 334 338 342 342 342 342 342 342 344 346 348 349 357 355 350 346 342 345 352 358 359 360
308 309 310 310 311 311 311 312 312 312 312 312 313 313 313 314 316 316 318 323 328 328 326 332 334 338 336 341 343 341 344 347 346 347 349 357 353 347 346 343 343 346 355 361
307 308 308 308 307 308 309 312 313 313 313 312 313 313 312 314 317 318 321 323 324 321 322 326 328 331 333 334 336 341 341 344 346 348 350 355 355 348 343 341 337 333 334 335
307 306 307 306 307 307 307 308 311 312 313 312 313 312 312 314 320 322 321 321 320 321 321 322 323 324 328 330 334 337 341 342 345 346 348 349 347 342 336 333 331 331 331 331
305 306 306 306 306 306 306 305 306 307 309 313 314 315 316 316 318 314 313 314 316 317 316 316 318 321 323 329 332 336 339 340 342 344 344 343 339 335 331 330 329 328 329 331
304 304 304 305 305 305 304 304 303 303 305 306 309 309 309 310 311 311 310 311 312 314 314 314 315 317 321 326 332 335 338 338 338 339 338 336 333 332 331 329 327 324 323 327
304 303 303 303 302 303 303 303 303 302 302 302 303 305 305 306 306 308 309 308 307 308 310 312 314 316 319 325 330 336 337 337 334 333 331 329 328 328 326 325 323 321 320 320
304 303 303 302 302 302 301 302 302 302 301 301 302 302 303 304 305 305 306 308 306 307 309 312 313 316 318 323 329 334 334 333 331 327 327 325 324 323 321 320 319 316 315 314
305 304 303 303 302 302 301 301 301 301 300 301 301 301 301 301 303 304 304 306 306 306 307 307 310 312 317 321 326 329 329 327 323 322 321 319 318 317 315 314 312 311 310 309
305 304 303 303 303 303 303 301 301 300 300 301 300 301 301 301 301 302 302 303 305 305 305 305 307 310 312 321 321 323 322 320 319 317 315 313 311 310 308 307 306 305 305 306
306 305 304 303 303 303 304 304 302 300 300 300 300 300 300 301 301 301 301 301 302 304 304 305 304 306 307 309 310 310 310 308 307 307 305 304 304 302 301 300 300 300 300 301
305 305 305 304 304 303 301 302 301 303 300 299 300 300 300 300 300 300 301 301 301 301 302 303 303 303 303 304 304 304 304 304 303 301 300 300 299 298 297 296 296 296 295 295
301 303 303 303 302 299 296 298 299 298 297 299 298 299 299 298 299 299 300 301 300 300 301 302 304 305 302 302 302 301 301 300 300 299 298 298 298 297 297 297 296 296 295 295
297 297 298 299 297 296 297 296 296 296 296 296 297 298 299 299 299 300 299 301 300 300 300 301 302 302 303 302 302 301 301 300 300 299 299 299 298 297 296 296 296 294 293 293
297 298 298 297 297 297 296 296 296 296 297 297 297 298 298 298 299 300 300 299 300 300 301 301 299 298 299 300 301 300 300 300 300 299 299 299 298 297 296 295 295 295 295 293
Wind_Speed
11 12 10 10 16 17 6 12 3 6 10 10 10 10 6 6 5 10 15 13 16 19 19 20 29 30 33 34 38 38 37 35 37 37 39 39 40 41 41 41 40 38 38 38
5 12 14 15 16 15 18 18 11 17 10 4 4 5 4 5 7 8 12 16 19 22 22 21 29 34 36 36 37 38 36 36 37 37 38 41 41 41 40 40 40 40 41 41
5 4 8 6 15 8 6 9 3 6 2 7 1 6 8 8 9 12 14 14 17 23 22 21 33 37 35 38 37 38 37 36 35 34 36 37 38 37 39 40 36 39 40 39
4 2 3 4 3 14 15 14 15 9 13 7 6 7 7 11 12 14 16 13 10 16 18 30 34 36 29 33 36 37 34 32 34 35 34 33 32 34 35 34 37 38 37 39
3 0 5 3 6 6 5 8 15 13 15 11 8 4 4 18 16 13 13 9 7 11 14 24 28 30 30 31 32 31 32 34 35 36 34 33 34 34 35 32 33 36 37 37
3 1 6 5 12 13 4 6 14 15 15 13 9 7 7 20 17 18 16 13 7 18 24 25 26 28 28 28 29 30 33 34 32 34 36 35 38 36 34 32 33 30 31 34
6 2 6 13 23 9 5 2 8 12 13 15 11 2 7 14 15 16 18 18 19 15 13 22 33 32 25 25 29 29 25 28 33 37 38 38 32 31 29 29 26 27 29 31
5 5 4 18 9 6 1 4 5 8 12 12 11 10 10 15 16 19 20 22 27 17 14 10 22 26 21 21 20 25 30 32 33 34 32 29 31 29 29 28 27 26 26 25
1 2 11 13 9 3 5 4 5 8 12 11 11 12 12 12 14 14 16 21 26 21 20 21 18 21 18 8 13 21 27 32 33 32 33 31 31 28 26 29 26 25 23 23
4 2 11 11 2 4 6 4 8 7 8 10 10 11 12 11 12 12 15 18 23 23 20 19 23 24 18 14 12 16 20 23 27 29 28 28 27 28 27 26 25 24 24 24
2 3 11 7 13 11 12 6 8 7 6 8 10 12 11 9 10 10 13 20 21 18 17 18 16 18 17 15 13 15 12 10 13 21 26 26 25 25 25 26 27 25 26 23
2 8 7 9 13 16 14 10 8 10 10 7 7 8 10 9 9 11 13 20 21 21 20 23 19 16 15 14 13 9 7 5 4 5 12 22 26 20 25 26 26 28 23 21
4 13 8 11 11 14 14 15 14 10 9 10 7 6 8 7 8 16 19 22 20 18 21 23 21 19 18 15 13 11 7 5 1 3 8 15 19 20 16 8 21 23 22 20
13 11 7 11 10 15 13 14 16 16 13 11 11 10 9 8 12 12 12 16 16 17 19 18 17 14 17 15 15 14 9 5 5 4 6 11 16 18 18 14 11 8 11 17
16 14 12 12 12 14 19 15 11 10 10 8 12 9 9 6 6 11 14 14 15 15 16 16 17 17 17 16 13 12 8 5 6 4 3 8 13 14 15 15 14 17 20 17
11 12 12 16 16 16 16 17 15 13 11 8 5 9 12 11 10 9 11 15 15 13 19 20 21 18 19 17 13 10 6 3 3 4 3 5 10 15 17 17 17 18 18 21
13 15 11 12 14 16 15 13 13 13 12 11 11 9 13 13 9 13 14 14 15 15 15 18 24 25 22 17 14 11 7 3 1 4 7 7 12 16 16 17 18 19 15 13
4 6 9 9 9 11 13 14 18 20 16 19 16 17 15 11 9 13 17 17 16 19 17 20 23 27 25 19 15 12 8 7 5 6 9 10 12 17 21 22 21 23 24 20
4 5 9 13 15 12 10 12 16 19 22 22 22 18 16 17 16 14 12 11 12 12 18 22 23 25 26 23 17 11 12 10 9 10 11 15 13 13 16 21 21 21 21 20
2 1 3 5 11 12 13 16 15 18 19 20 20 21 19 20 18 18 16 13 18 18 20 18 18 20 21 21 14 8 14 16 17 15 18 15 15 16 17 21 22 20 19 20
5 4 2 1 4 11 14 18 16 17 18 19 19 21 19 20 19 21 21 13 25 31 23 21 19 17 15 12 7 7 13 15 13 14 13 16 20 20 19 18 18 21 25 25
6 4 3 5 7 10 10 16 17 16 14 19 21 21 21 21 22 20 26 24 26 32 27 26 27 17 11 2 5 10 16 19 21 21 20 20 19 17 18 20 19 19 22 25
8 8 5 4 5 8 12 8 7 11 13 13 15 18 18 16 18 21 13 29 34 35 31 31 31 27 25 22 18 19 25 25 26 27 25 23 29 25 26 23 25 23 23 27
6 10 9 5 7 9 10 8 8 6 8 9 8 9 10 9 11 15 15 26 27 30 35 33 32 33 36 30 26 27 27 30 31 30 30 28 27 33 34 35 33 31 29 27
2 2 3 3 5 6 6 6 4 6 7 9 11 9 14 13 4 6 7 15 23 30 32 33 34 39 38 36 31 35 34 33 32 35 28 31 31 27 34 32 24 27 26 23
2 3 3 4 3 3 6 7 6 7 10 8 5 9 9 12 10 8 8 6 13 19 24 30 34 35 34 33 34 34 33 32 30 29 34 28 26 25 29 28 24 20 22 21
5 7 8 6 6 6 8 9 12 11 10 8 6 8 7 4 6 7 12 10 11 14 18 20 26 28 31 32 30 31 31 31 29 27 26 24 22 20 18 17 16 14 13 16
Wind_Direction
270 275 273 258 277 286 247 244 225 216 214 223 226 252 201 222 249 256 249 235 213 204 199 196 196 183 188 190 192 191 192 194 199 201 205 210 215 220 226 230 231 230 231 230
284 242 244 263 262 262 249 249 247 265 270 313 35 73 23 338 319 286 250 226 217 203 195 188 190 187 183 186 186 186 190 195 198 199 201 208 214 217 220 225 230 232 233 233
259 321 324 276 226 209 93 34 280 238 14 306 338 50 26 356 347 329 313 286 217 198 190 186 188 186 182 182 179 185 190 195 195 197 200 205 210 212 218 220 221 227 231 232
273 281 170 142 69 91 98 50 13 5 358 345 142 153 57 14 356 337 320 307 207 190 186 188 186 187 175 172 178 183 190 190 193 196 200 204 205 210 217 218 220 223 226 230
275 61 306 195 27 360 29 44 10 356 353 345 297 282 355 358 345 332 330 307 263 167 172 167 175 175 167 171 176 180 187 191 193 194 197 199 203 209 215 216 220 224 228 230
262 146 212 57 331 314 240 42 359 355 356 346 33 61 340 337 338 348 354 6 341 133 144 150 160 164 161 169 176 184 192 194 193 195 199 200 207 209 211 215 220 222 225 230
246 265 273 354 324 294 134 131 337 348 359 5 55 91 311 334 352 1 7 14 21 63 115 153 162 164 165 171 188 191 188 191 196 202 204 209 207 209 207 211 215 219 225 230
194 209 214 352 339 72 26 52 335 340 348 357 6 5 1 5 359 7 9 15 19 33 46 127 161 161 162 178 190 191 194 196 200 204 203 205 206 205 207 207 210 216 220 226
18 314 325 306 300 44 46 323 322 335 344 346 3 7 6 3 7 8 17 18 18 23 38 61 107 139 128 143 168 185 194 199 208 209 207 203 202 201 199 204 208 214 216 223
20 2 313 300 271 355 351 311 299 327 341 354 358 3 8 0 5 10 14 17 16 21 22 26 67 89 99 103 126 174 188 198 205 207 204 202 202 204 203 203 205 211 214 219
253 289 328 215 333 336 334 311 304 324 353 360 357 3 357 351 0 3 8 11 15 17 18 13 38 65 74 82 96 99 107 136 177 204 209 206 204 206 208 215 213 212 218 213
298 309 293 292 312 323 328 320 325 329 336 11 1 346 347 345 341 356 2 11 13 14 15 12 25 36 46 55 58 67 88 106 122 173 196 202 202 203 216 219 221 225 228 234
328 335 341 342 342 341 321 315 316 310 319 329 351 337 337 321 330 340 359 9 8 12 14 15 15 27 27 24 24 16 6 356 322 208 198 199 203 200 193 213 236 231 229 222
3 336 357 8 350 344 338 313 306 303 308 308 317 319 314 317 319 332 350 348 355 2 7 3 5 8 9 12 9 9 360 355 343 306 246 219 214 209 206 181 159 140 191 214
5 5 3 349 13 14 1 353 337 329 320 323 317 324 323 325 319 321 328 338 342 338 342 348 347 343 348 357 358 355 347 356 359 354 257 216 212 201 183 171 150 136 129 120
359 1 2 13 6 18 17 6 1 352 333 317 300 326 331 303 308 320 347 354 355 339 335 334 325 333 338 340 340 340 340 351 9 33 66 162 180 163 158 149 140 138 134 131
21 19 6 12 9 5 19 17 12 4 0 3 357 17 32 1 351 0 353 350 344 332 332 332 321 322 327 332 331 323 313 260 178 113 113 147 157 148 140 129 125 124 117 128
10 24 20 12 14 16 11 21 24 16 8 11 25 37 34 30 2 21 357 343 344 328 320 324 324 320 319 320 315 305 276 244 195 145 135 145 144 142 137 130 125 118 113 123
14 17 6 9 8 15 14 22 30 29 21 18 25 24 23 26 19 14 17 17 10 357 326 323 316 321 318 316 307 287 235 208 189 161 149 140 133 130 127 123 118 116 119 117
169 138 56 25 20 6 358 358 20 36 29 32 34 32 24 17 18 21 19 31 5 347 350 335 321 318 320 315 306 262 209 194 181 167 153 141 134 129 128 128 126 121 116 118
189 220 260 19 24 32 23 16 11 35 34 29 36 32 20 19 19 24 28 21 5 10 9 359 2 349 324 317 284 206 178 164 145 134 129 128 127 129 127 121 117 120 119 118
211 225 281 322 342 345 4 19 16 8 13 46 39 34 33 26 25 26 28 16 5 12 8 10 11 17 1 233 125 145 138 132 127 122 115 113 106 101 100 103 99 103 112 115
215 230 233 288 319 334 339 335 356 7 6 11 52 56 42 28 29 27 20 19 21 18 12 15 25 35 48 58 68 88 97 93 97 101 100 102 107 101 95 89 92 95 95 103
231 241 243 258 291 323 328 314 340 303 327 344 350 344 341 5 39 36 37 37 30 23 25 22 34 45 50 44 52 64 75 85 83 84 89 91 91 98 100 97 99 99 94 90
156 275 307 270 300 336 344 6 19 1 342 312 320 348 349 360 326 334 23 53 48 42 36 33 44 52 52 52 46 58 63 72 80 87 86 86 86 93 96 96 95 95 91 86
154 74 105 118 58 60 94 68 60 22 11 6 7 358 346 3 37 64 60 96 57 57 56 51 50 54 60 63 67 66 62 65 72 82 85 88 93 96 95 96 94 88 91 94
111 113 128 108 61 86 92 77 59 44 21 10 11 18 28 18 43 68 60 95 88 69 71 73 71 66 61 63 72 77 80 77 74 74 77 75 72 72 77 80 82 79 76 84